Regional Weather Roundup
Issued by NWS

Home | Current Version | Previous Version | Graphics & Text | Print | Product List | Glossary On
Versions: 1 2 3 4 5 6 7 8 9 10 11 12 13 14 15 16 17 18 19 20 21 22 23 24 25 26 27 28 29 30 31 32 33 34 35 36 37 38 39 40 41 42 43 44 45 46 47 48 49 50
000
ASUS43 KDMX 271107
RWRIA

WEATHER ROUNDUP FOR IOWA
NATIONAL WEATHER SERVICE DES MOINES IA
500 AM CST THU NOV 27 2014

NOTE: "FAIR" INDICATES FEW OR NO CLOUDS BELOW 12,000 FEET WITH NO
SIGNIFICANT WEATHER AND/OR OBSTRUCTIONS TO VISIBILITY.

* - THESE STATIONS ARE NOT NWS STATIONS...THUS NOT UNDER NWS
QUALITY CONTROL.  THEY ALSO DO NOT REPORT WEATHER SUCH
AS PRECIPITATION OR FOG.

IAZ001>003-012>014-020>022-031>034-043>046-271200-
   NORTHWEST IOWA

CITY           SKY/WX    TMP DP  RH WIND       PRES   REMARKS
CARROLL *      MOCLDY     1  -6  71 NW8       30.49R WCI -12
CHEROKEE *     PTCLDY     0  -8  71 N3        30.50S
DENISON *      MOCLDY     7  -4  61 N8        30.48R WCI  -6
LE MARS *      CLEAR      1  -6  71 N5        30.52S WCI  -8
ORANGE CITY *  CLEAR      0  -9  65 CALM      30.48S
SHELDON *      CLEAR     -6 -13  71 N8        30.48S WCI -21
SIOUX CITY     CLOUDY    12   0  58 NE10      30.51F WCI  -1
SPENCER        PTCLDY   N/A N/A N/A NW9       30.49R
STORM LAKE *   CLEAR     -4 -13  65 NW6       30.47S WCI -16
$$

IAZ055>058-069>071-079>083-090>094-271200-
   SOUTHWEST IOWA

CITY           SKY/WX    TMP DP  RH WIND       PRES   REMARKS
ATLANTIC *     CLEAR      9   3  78 CALM      30.49R
AUDUBON *      CLEAR      7   0  72 N5        30.48R WCI  -2
CLARINDA *     CLEAR     16  10  79 N6        30.52S WCI   7
COUNCIL BLFS * CLOUDY    16  12  86 N8        30.47S WCI   5
CRESTON *      CLOUDY    14   7  73 NW12      30.47R WCI   0
HARLAN  *      CLEAR      9   5  85 NW8       30.53R WCI  -4
LAMONI         CLOUDY    20  16  84 N10       30.45R WCI   9
RED OAK *      CLEAR     14  10  85 N5        30.51R WCI   6
SHENANDOAH *   CLEAR     16  10  79 N5        30.52R WCI   9
$$

IAZ047>049-059>061-072>074-084-271200-
   CENTRAL IOWA

CITY           SKY/WX    TMP DP  RH WIND       PRES   REMARKS
AMES           CLEAR      5  -3  69 N15       30.48R WCI -13
ANKENY *       CLOUDY    10   1  67 NW13      30.49R WCI  -5
CHARITON *     CLOUDY    19  14  79 NW14      30.45R WCI   6
DES MOINES     PTCLDY    11   3  70 NW15      30.48R WCI  -5
GRINNELL*      CLOUDY    12   9  85 NW10      30.43R WCI  -1
KNOXVILLE *    CLOUDY    18  10  73 NW12G18   30.44R WCI   5
MARSHALLTOWN   PTCLDY     7   3  84 NW17      30.43R WCI -12
PELLA *        CLOUDY    16  12  86 NW14      30.47R WCI   1
PERRY *          N/A      7   0  72 NW12      30.49R WCI  -9
$$

IAZ004>006-015-016-023>025-035-036-271200-
   NORTH CENTRAL IOWA

CITY           SKY/WX    TMP DP  RH WIND       PRES   REMARKS
ALGONA *       CLEAR     -6 -11  77 NW12      30.48R WCI -24
CLARION *      CLEAR     -4  -9  77 NW14      30.47R WCI -24
ESTHERVILLE    PTCLDY    -7 -11  83 NW14      30.47R WCI -28
FORT DODGE *   CLEAR      0  -9  65 NW10      30.48S WCI -17
MASON CITY     PTCLDY    -3  -8  79 NW14      30.45R WCI -22
FOREST CITY *    N/A     -4  -6  92 NW9       30.45R WCI -20
IOWA FALLS *     N/A      3  -4  72 NW17      30.45R WCI -17
$$

IAZ007>011-017>019-026>030-037>042-050>054-066-271200-
   NORTHEAST IOWA

CITY           SKY/WX    TMP DP  RH WIND       PRES   REMARKS
CEDAR RAPIDS   CLOUDY    18  15  88 NW15      30.37R WCI   4
CHARLES CITY * CLEAR      7  -2  66 NW16      30.41R WCI -11
CLINTON *      CLOUDY    21  18  86 NW8       30.36R WCI  12
DECORAH *      MOCLDY    14   9  79 NW13      30.35R WCI   0
DUBUQUE        CLOUDY    23  18  81 NW13      30.31R WCI  11
MONTICELLO *   MIX PCPN  23  19  86 NW14      30.35R WCI  11
OELWEIN *      MOCLDY    14  10  85 NW14G21   30.38R WCI  -1
WATERLOO       PTCLDY     9   5  84 NW12      30.41R WCI  -6
$$

IAZ064-065-067-068-078-271200-
   EAST CENTRAL IOWA

CITY           SKY/WX    TMP DP  RH WIND       PRES   REMARKS
DAVENPORT      CLOUDY    25  19  78 NW7       30.35R WCI  17
IOWA CITY      CLOUDY    21  16  81 NW15      30.40R WCI   8
MT. PLEASANT * CLOUDY    25  21  86 W15G22    30.39R WCI  12
MUSCATINE *    CLOUDY    27  21  80 NW13      30.38S WCI  16
QUAD CITIES    CLOUDY    26  19  74 NW7       30.35R WCI  18
$$

IAZ062-063-075>077-085>089-095>099-271200-
   SOUTHEAST IOWA

CITY           SKY/WX    TMP DP  RH WIND       PRES   REMARKS
BURLINGTON     CLOUDY    26  22  84 NW9       30.37R WCI  17
FAIRFIELD *    FLURRIES  21  16  79 NW20G26   30.40R WCI   6
FORT MADISON * CLOUDY    27  25  93 NW9       30.39R WCI  17
KEOKUK *       CLOUDY    27  23  86 NW8       30.39R WCI  18
OSKALOOSA *    CLOUDY    18  14  86 NW17      30.44R WCI   2
CENTERVILLE *  CLOUDY    21  19  93 W10       30.45R WCI  10
OTTUMWA        CLOUDY    19  13  77 NW16      30.43R WCI   4
WASHINGTON *   CLOUDY    23  23 100 NW17G23   30.39R WCI   9
$$

ABBREVIATIONS USED IN REMARKS
   TC - TEMPERATURES IN CELSIUS
  WCI - WIND CHILL INDEX
   HX - HEAT INDEX
  VSB - VISIBILITY
$$



USA.gov is the U.S. government's official web portal to all federal, state and local government web resources and services.